Find Kosmos-2209

NORAD ID: 22112 Int'l Des: 1992-059 Owner: PVO Country: RU operational
HEOCIRCULARGSO

現在のビュー

3D地球を読み込み中...

Kosmos-2209について

説明を読み込み中...

次回通過

Passes for default location (London). Set your location on the main map for personalized predictions.

高度履歴

Loading altitude history...

軌道要素

1 22112U 92059A 26149.42446250 -.00000298 00000-0 00000+0 0 9991
2 22112 13.5977 342.7792 0011464 342.5096 28.0584 1.00212063123436
Epoch: May 29, 2026 • Age: 15 hours

現在のステータス

高度 35819.3 km
速度 3.07 km/s
衛星直下点 -11.17°S, 47.43°W
打ち上げ日 Sep 10, 1992
運用期間 33.7 years
タイプ other

技術仕様

分類 Payload
質量 1250.00 kg
乾燥質量 1150.00 kg
総質量 1250.00 kg
長さ 4.00 m
直径 2.00 m
スパン 5.00 m
形状 Cyl + 2 Pan
製造者 NPOL/KOMET
バスタイプ Oko
フェーズステータス In Orbit
所有者/国 PVO/RU

Most Searched